Weather History for PHMK - August, 2013

Change the Weather History Date:

Sunday, August 18, 2013

  Actual Average Record
Temperature  
Mean Temperature 77 °F -  
Max Temperature 82 °F 85 °F 92 °F (1973)
Min Temperature 72 °F 71 °F 66 °F (1981)
Cooling Degree Days 12    
Growing Degree Days 27 (Base 50)    
Moisture  
Dew Point 69 °F    
Average Humidity 78    
Maximum Humidity 93    
Minimum Humidity 67    
Precipitation  
Precipitation 0.00 in - - ()
Sea Level Pressure  
Sea Level Pressure 30.03 in    
Wind  
Wind Speed 11 mph (NE)    
Max Wind Speed 21 mph    
Max Gust Speed 30 mph    
Visibility 10 miles    
Events      
Averages and records for this station are not official NWS values.
T = Trace of Precipitation, MM = Missing Value Source: NWS Daily Summary

Daily Weather History Graph

Daily Weather History Graph

Search for Another Location

Airport or City:

Trip Planner

Search our weather history database for the weather conditions in past years. The results will help you decide how hot, cold, wet, or windy it might be!

Date:

Astronomy

Aug. 18, 2013 Rise Set
Actual Time 6:08 AM HST 6:55 PM HST
Civil Twilight 5:45 AM HST 7:18 PM HST
Nautical Twilight 5:18 AM HST 7:45 PM HST
Astronomical Twilight 4:50 AM HST 8:13 PM HST
Moon 5:04 PM HST (8/18) 3:39 AM HST (8/18)
Length of Visible Light 13h 33m
Length of Day
12h 47m
Waxing Gibbous, 93% of the Moon is Illuminated
Aug 18
Waxing Gibbous
Aug 20
Full
Aug 27
Last Quarter
Sep 5
New
Sep 12
First Quarter

Hourly Weather History & Observations

Time (HST) Temp. Heat Index Dew Point Humidity Pressure Visibility Wind Dir Wind Speed Gust Speed Precip Events Conditions
12:54 AM 73.0 °F - 66.0 °F 79% 30.04 in 10.0 mi NE 9.2 mph - N/A   Clear
1:54 AM 73.0 °F - 66.0 °F 79% 30.02 in 10.0 mi NE 8.1 mph - N/A   Clear
2:54 AM 73.0 °F - 66.9 °F 81% 30.01 in 10.0 mi NNE 9.2 mph - N/A   Clear
3:54 AM 73.0 °F - 66.0 °F 79% 30.00 in 10.0 mi NNE 9.2 mph - N/A   Clear
4:54 AM 72.0 °F - 64.0 °F 76% 30.00 in 10.0 mi NE 4.6 mph - N/A   Clear
5:54 AM 72.0 °F - 66.0 °F 81% 30.01 in 10.0 mi NNE 5.8 mph - N/A   Clear
6:54 AM 73.0 °F - 68.0 °F 84% 30.04 in 10.0 mi NE 11.5 mph 17.3 mph N/A   Clear
7:54 AM 75.0 °F - 69.1 °F 82% 30.04 in 10.0 mi NE 11.5 mph 19.6 mph N/A   Partly Cloudy
8:54 AM 79.0 °F - 69.1 °F 72% 30.05 in 10.0 mi NE 15.0 mph 23.0 mph N/A   Partly Cloudy
9:54 AM 79.0 °F - 70.0 °F 74% 30.05 in 10.0 mi NE 20.7 mph 28.8 mph N/A   Partly Cloudy
10:54 AM 81.0 °F 84.4 °F 70.0 °F 69% 30.05 in 10.0 mi NE 17.3 mph 28.8 mph N/A   Scattered Clouds
11:54 AM 81.0 °F 84.4 °F 70.0 °F 69% 30.04 in 10.0 mi NE 15.0 mph 24.2 mph N/A   Scattered Clouds
12:54 PM 82.0 °F 85.9 °F 70.0 °F 67% 30.02 in 10.0 mi NNE 13.8 mph 29.9 mph N/A   Partly Cloudy
1:54 PM 82.0 °F 85.9 °F 70.0 °F 67% 30.00 in 10.0 mi NNE 16.1 mph 27.6 mph N/A   Partly Cloudy
2:54 PM 80.1 °F 83.2 °F 70.0 °F 71% 30.00 in 10.0 mi NE 12.7 mph 23.0 mph N/A   Scattered Clouds
3:54 PM 79.0 °F - 70.0 °F 74% 29.99 in 10.0 mi NE 15.0 mph 23.0 mph N/A   Mostly Cloudy
4:54 PM 77.0 °F - 70.0 °F 79% 29.99 in 10.0 mi NNE 11.5 mph 18.4 mph N/A   Mostly Cloudy
5:54 PM 77.0 °F - 70.0 °F 79% 30.00 in 10.0 mi NNE 9.2 mph - N/A   Clear
6:54 PM 75.9 °F - 70.0 °F 82% 30.02 in 10.0 mi NNE 9.2 mph 18.4 mph N/A   Clear
7:54 PM 73.9 °F - 70.0 °F 87% 30.03 in 10.0 mi NE 9.2 mph 16.1 mph N/A   Mostly Cloudy
8:54 PM 73.9 °F - 69.1 °F 85% 30.05 in 10.0 mi NE 11.5 mph 18.4 mph N/A   Clear
9:54 PM 73.9 °F - 70.0 °F 87% 30.06 in 10.0 mi NNE 10.4 mph - 0.00 in   Mostly Cloudy
10:54 PM 73.9 °F - 70.0 °F 87% 30.07 in 10.0 mi NNE 5.8 mph - N/A   Partly Cloudy
11:54 PM 73.0 °F - 71.1 °F 93% 30.06 in 10.0 mi NNE 8.1 mph - N/A   Mostly Cloudy